owner,sensor,date,latitude,longitude,vertical_datum,sea_water_temperature,qcFlag 
LUMCON,ioos:station:LUMCON:102:1,2019-05-01T00:00:00Z,29.1870,-90.6093,0.0,23.57,11111222 
LUMCON,ioos:station:LUMCON:102:1,2019-05-01T00:15:00Z,29.1870,-90.6093,0.0,23.57,11111222 
LUMCON,ioos:station:LUMCON:102:1,2019-05-01T00:30:00Z,29.1870,-90.6093,0.0,23.57,11111222 
LUMCON,ioos:station:LUMCON:102:1,2019-05-01T00:45:00Z,29.1870,-90.6093,0.0,23.57,11111222 
LUMCON,ioos:station:LUMCON:102:1,2019-05-01T01:00:00Z,29.1870,-90.6093,0.0,23.57,11111222 
LUMCON,ioos:station:LUMCON:102:1,2019-05-01T01:15:00Z,29.1870,-90.6093,0.0,23.57,11111222 
LUMCON,ioos:station:LUMCON:102:1,2019-05-01T01:30:00Z,29.1870,-90.6093,0.0,23.57,11111222 
LUMCON,ioos:station:LUMCON:102:1,2019-05-01T01:45:00Z,29.1870,-90.6093,0.0,23.57,11111222 
LUMCON,ioos:station:LUMCON:102:1,2019-05-01T02:00:00Z,29.1870,-90.6093,0.0,23.57,11111222 
LUMCON,ioos:station:LUMCON:102:1,2019-05-01T02:15:00Z,29.1870,-90.6093,0.0,23.57,11111222 
LUMCON,ioos:station:LUMCON:102:1,2019-05-01T02:30:00Z,29.1870,-90.6093,0.0,23.57,11111222 
LUMCON,ioos:station:LUMCON:102:1,2019-05-01T02:45:00Z,29.1870,-90.6093,0.0,23.57,11111222 
LUMCON,ioos:station:LUMCON:102:1,2019-05-01T03:00:00Z,29.1870,-90.6093,0.0,23.57,11111222 
LUMCON,ioos:station:LUMCON:102:1,2019-05-01T03:15:00Z,29.1870,-90.6093,0.0,23.57,11111222 
LUMCON,ioos:station:LUMCON:102:1,2019-05-01T03:30:00Z,29.1870,-90.6093,0.0,23.57,11111222 
LUMCON,ioos:station:LUMCON:102:1,2019-05-01T03:45:00Z,29.1870,-90.6093,0.0,23.57,11111222 
LUMCON,ioos:station:LUMCON:102:1,2019-05-01T04:00:00Z,29.1870,-90.6093,0.0,23.57,11111222 
LUMCON,ioos:station:LUMCON:102:1,2019-05-01T04:15:00Z,29.1870,-90.6093,0.0,23.57,11111222 
LUMCON,ioos:station:LUMCON:102:1,2019-05-01T04:30:00Z,29.1870,-90.6093,0.0,23.57,11111222 
LUMCON,ioos:station:LUMCON:102:1,2019-05-01T04:45:00Z,29.1870,-90.6093,0.0,23.57,11111222 
LUMCON,ioos:station:LUMCON:102:1,2019-05-01T05:00:00Z,29.1870,-90.6093,0.0,23.57,11111222 
LUMCON,ioos:station:LUMCON:102:1,2019-05-01T05:15:00Z,29.1870,-90.6093,0.0,23.57,11111222 
LUMCON,ioos:station:LUMCON:102:1,2019-05-01T05:30:00Z,29.1870,-90.6093,0.0,23.57,11111222 
LUMCON,ioos:station:LUMCON:102:1,2019-05-01T05:45:00Z,29.1870,-90.6093,0.0,23.57,11111222 
LUMCON,ioos:station:LUMCON:102:1,2019-05-01T06:00:00Z,29.1870,-90.6093,0.0,23.57,11111222 
LUMCON,ioos:station:LUMCON:102:1,2019-05-01T06:15:00Z,29.1870,-90.6093,0.0,23.57,11111222 
LUMCON,ioos:station:LUMCON:102:1,2019-05-01T06:30:00Z,29.1870,-90.6093,0.0,23.57,11111222 
LUMCON,ioos:station:LUMCON:102:1,2019-05-01T06:45:00Z,29.1870,-90.6093,0.0,23.57,11111222 
LUMCON,ioos:station:LUMCON:102:1,2019-05-01T07:00:00Z,29.1870,-90.6093,0.0,23.57,11111222 
LUMCON,ioos:station:LUMCON:102:1,2019-05-01T07:15:00Z,29.1870,-90.6093,0.0,23.57,11111222 
LUMCON,ioos:station:LUMCON:102:1,2019-05-01T07:30:00Z,29.1870,-90.6093,0.0,23.57,11111222 
LUMCON,ioos:station:LUMCON:102:1,2019-05-01T07:45:00Z,29.1870,-90.6093,0.0,23.57,11111222 
LUMCON,ioos:station:LUMCON:102:1,2019-05-01T08:00:00Z,29.1870,-90.6093,0.0,23.57,11111222 
LUMCON,ioos:station:LUMCON:102:1,2019-05-01T08:15:00Z,29.1870,-90.6093,0.0,23.57,11111222 
LUMCON,ioos:station:LUMCON:102:1,2019-05-01T08:30:00Z,29.1870,-90.6093,0.0,23.57,11111222 
LUMCON,ioos:station:LUMCON:102:1,2019-05-01T08:45:00Z,29.1870,-90.6093,0.0,23.57,11111222 
LUMCON,ioos:station:LUMCON:102:1,2019-05-01T09:00:00Z,29.1870,-90.6093,0.0,23.57,11111222 
LUMCON,ioos:station:LUMCON:102:1,2019-05-01T09:15:00Z,29.1870,-90.6093,0.0,23.57,11111222 
LUMCON,ioos:station:LUMCON:102:1,2019-05-01T09:30:00Z,29.1870,-90.6093,0.0,23.57,11111222 
LUMCON,ioos:station:LUMCON:102:1,2019-05-01T09:45:00Z,29.1870,-90.6093,0.0,23.57,11111222 
LUMCON,ioos:station:LUMCON:102:1,2019-05-01T10:00:00Z,29.1870,-90.6093,0.0,23.57,11111222 
LUMCON,ioos:station:LUMCON:102:1,2019-05-01T10:15:00Z,29.1870,-90.6093,0.0,23.57,11111222 
LUMCON,ioos:station:LUMCON:102:1,2019-05-01T10:30:00Z,29.1870,-90.6093,0.0,23.57,11111222 
LUMCON,ioos:station:LUMCON:102:1,2019-05-01T10:45:00Z,29.1870,-90.6093,0.0,23.57,11111222 
LUMCON,ioos:station:LUMCON:102:1,2019-05-01T11:00:00Z,29.1870,-90.6093,0.0,23.57,11111222 
LUMCON,ioos:station:LUMCON:102:1,2019-05-01T11:15:00Z,29.1870,-90.6093,0.0,23.57,11111222 
LUMCON,ioos:station:LUMCON:102:1,2019-05-01T11:30:00Z,29.1870,-90.6093,0.0,23.57,11111222 
LUMCON,ioos:station:LUMCON:102:1,2019-05-01T11:45:00Z,29.1870,-90.6093,0.0,23.57,11111222 
LUMCON,ioos:station:LUMCON:102:1,2019-05-01T12:00:00Z,29.1870,-90.6093,0.0,23.57,11111222 
LUMCON,ioos:station:LUMCON:102:1,2019-05-01T12:15:00Z,29.1870,-90.6093,0.0,23.57,11111222 
LUMCON,ioos:station:LUMCON:102:1,2019-05-01T12:30:00Z,29.1870,-90.6093,0.0,23.57,11111222 
LUMCON,ioos:station:LUMCON:102:1,2019-05-01T12:45:00Z,29.1870,-90.6093,0.0,23.57,11111222 
LUMCON,ioos:station:LUMCON:102:1,2019-05-01T13:00:00Z,29.1870,-90.6093,0.0,23.57,11111222 
LUMCON,ioos:station:LUMCON:102:1,2019-05-01T13:15:00Z,29.1870,-90.6093,0.0,24.89,11111222 
LUMCON,ioos:station:LUMCON:102:1,2019-05-01T13:30:00Z,29.1870,-90.6093,0.0,24.87,11111222 
LUMCON,ioos:station:LUMCON:102:1,2019-05-01T13:45:00Z,29.1870,-90.6093,0.0,24.86,11111222 
LUMCON,ioos:station:LUMCON:102:1,2019-05-01T14:00:00Z,29.1870,-90.6093,0.0,24.88,11111222 
LUMCON,ioos:station:LUMCON:102:1,2019-05-01T14:15:00Z,29.1870,-90.6093,0.0,24.92,11111222 
LUMCON,ioos:station:LUMCON:102:1,2019-05-01T14:30:00Z,29.1870,-90.6093,0.0,24.93,11111222 
LUMCON,ioos:station:LUMCON:102:1,2019-05-01T14:45:00Z,29.1870,-90.6093,0.0,24.86,11111222 
LUMCON,ioos:station:LUMCON:102:1,2019-05-01T15:00:00Z,29.1870,-90.6093,0.0,24.87,11111222 
LUMCON,ioos:station:LUMCON:102:1,2019-05-01T15:15:00Z,29.1870,-90.6093,0.0,25.02,11111222 
LUMCON,ioos:station:LUMCON:102:1,2019-05-01T15:30:00Z,29.1870,-90.6093,0.0,25.16,11111222 
LUMCON,ioos:station:LUMCON:102:1,2019-05-01T15:45:00Z,29.1870,-90.6093,0.0,25.18,11111222 
LUMCON,ioos:station:LUMCON:102:1,2019-05-01T16:00:00Z,29.1870,-90.6093,0.0,25.2,11111222 
LUMCON,ioos:station:LUMCON:102:1,2019-05-01T16:15:00Z,29.1870,-90.6093,0.0,25.33,11111222 
LUMCON,ioos:station:LUMCON:102:1,2019-05-01T16:30:00Z,29.1870,-90.6093,0.0,25.34,11111222 
LUMCON,ioos:station:LUMCON:102:1,2019-05-01T16:45:00Z,29.1870,-90.6093,0.0,25.42,11111222 
LUMCON,ioos:station:LUMCON:102:1,2019-05-01T17:00:00Z,29.1870,-90.6093,0.0,25.38,11111222 
LUMCON,ioos:station:LUMCON:102:1,2019-05-01T17:15:00Z,29.1870,-90.6093,0.0,25.54,11111222 
LUMCON,ioos:station:LUMCON:102:1,2019-05-01T17:30:00Z,29.1870,-90.6093,0.0,25.53,11111222 
LUMCON,ioos:station:LUMCON:102:1,2019-05-01T17:45:00Z,29.1870,-90.6093,0.0,25.5,11111222 
LUMCON,ioos:station:LUMCON:102:1,2019-05-01T18:00:00Z,29.1870,-90.6093,0.0,25.55,11111222 
LUMCON,ioos:station:LUMCON:102:1,2019-05-01T18:15:00Z,29.1870,-90.6093,0.0,25.64,11111222 
LUMCON,ioos:station:LUMCON:102:1,2019-05-01T18:30:00Z,29.1870,-90.6093,0.0,25.66,11111222 
LUMCON,ioos:station:LUMCON:102:1,2019-05-01T18:45:00Z,29.1870,-90.6093,0.0,25.63,11111222 
LUMCON,ioos:station:LUMCON:102:1,2019-05-01T19:00:00Z,29.1870,-90.6093,0.0,25.68,11111222 
LUMCON,ioos:station:LUMCON:102:1,2019-05-01T19:15:00Z,29.1870,-90.6093,0.0,25.75,11111222 
LUMCON,ioos:station:LUMCON:102:1,2019-05-01T19:30:00Z,29.1870,-90.6093,0.0,25.79,11111222 
LUMCON,ioos:station:LUMCON:102:1,2019-05-01T19:45:00Z,29.1870,-90.6093,0.0,25.84,11111222 
LUMCON,ioos:station:LUMCON:102:1,2019-05-01T20:00:00Z,29.1870,-90.6093,0.0,26.0,11111222 
LUMCON,ioos:station:LUMCON:102:1,2019-05-01T20:15:00Z,29.1870,-90.6093,0.0,26.07,11111222 
LUMCON,ioos:station:LUMCON:102:1,2019-05-01T20:30:00Z,29.1870,-90.6093,0.0,26.46,11111222 
LUMCON,ioos:station:LUMCON:102:1,2019-05-01T20:45:00Z,29.1870,-90.6093,0.0,26.4,11111222 
LUMCON,ioos:station:LUMCON:102:1,2019-05-01T21:00:00Z,29.1870,-90.6093,0.0,26.39,11111222 
LUMCON,ioos:station:LUMCON:102:1,2019-05-01T21:15:00Z,29.1870,-90.6093,0.0,26.44,11111222 
LUMCON,ioos:station:LUMCON:102:1,2019-05-01T21:30:00Z,29.1870,-90.6093,0.0,26.46,11111222 
LUMCON,ioos:station:LUMCON:102:1,2019-05-01T21:45:00Z,29.1870,-90.6093,0.0,26.47,11111222 
LUMCON,ioos:station:LUMCON:102:1,2019-05-01T22:00:00Z,29.1870,-90.6093,0.0,26.49,11111222 
LUMCON,ioos:station:LUMCON:102:1,2019-05-01T22:15:00Z,29.1870,-90.6093,0.0,26.54,11111222 
LUMCON,ioos:station:LUMCON:102:1,2019-05-01T22:30:00Z,29.1870,-90.6093,0.0,26.57,11111222 
LUMCON,ioos:station:LUMCON:102:1,2019-05-01T22:45:00Z,29.1870,-90.6093,0.0,26.59,11111222 
LUMCON,ioos:station:LUMCON:102:1,2019-05-01T23:00:00Z,29.1870,-90.6093,0.0,26.61,11111222 
LUMCON,ioos:station:LUMCON:102:1,2019-05-01T23:15:00Z,29.1870,-90.6093,0.0,26.62,11111222 
LUMCON,ioos:station:LUMCON:102:1,2019-05-01T23:30:00Z,29.1870,-90.6093,0.0,26.64,11111222 
LUMCON,ioos:station:LUMCON:102:1,2019-05-01T23:45:00Z,29.1870,-90.6093,0.0,26.64,11111222 
LUMCON,ioos:station:LUMCON:102:1,2019-05-02T00:00:00Z,29.1870,-90.6093,0.0,26.65,11111222 
LUMCON,ioos:station:LUMCON:102:1,2019-05-02T00:15:00Z,29.1870,-90.6093,0.0,26.65,11111222 
LUMCON,ioos:station:LUMCON:102:1,2019-05-02T00:30:00Z,29.1870,-90.6093,0.0,26.56,11111222 
LUMCON,ioos:station:LUMCON:102:1,2019-05-02T00:45:00Z,29.1870,-90.6093,0.0,26.47,11111222 
LUMCON,ioos:station:LUMCON:102:1,2019-05-02T01:00:00Z,29.1870,-90.6093,0.0,26.49,11111222 
LUMCON,ioos:station:LUMCON:102:1,2019-05-02T01:15:00Z,29.1870,-90.6093,0.0,26.52,11111222 
LUMCON,ioos:station:LUMCON:102:1,2019-05-02T01:30:00Z,29.1870,-90.6093,0.0,26.5,11111222 
LUMCON,ioos:station:LUMCON:102:1,2019-05-02T01:45:00Z,29.1870,-90.6093,0.0,26.52,11111222 
LUMCON,ioos:station:LUMCON:102:1,2019-05-02T02:00:00Z,29.1870,-90.6093,0.0,26.59,11111222 
LUMCON,ioos:station:LUMCON:102:1,2019-05-02T02:15:00Z,29.1870,-90.6093,0.0,26.57,11111222 
LUMCON,ioos:station:LUMCON:102:1,2019-05-02T02:30:00Z,29.1870,-90.6093,0.0,26.54,11111222 
LUMCON,ioos:station:LUMCON:102:1,2019-05-02T02:45:00Z,29.1870,-90.6093,0.0,26.46,11111222 
LUMCON,ioos:station:LUMCON:102:1,2019-05-02T03:00:00Z,29.1870,-90.6093,0.0,26.38,11111222 
LUMCON,ioos:station:LUMCON:102:1,2019-05-02T03:15:00Z,29.1870,-90.6093,0.0,26.32,11111222 
LUMCON,ioos:station:LUMCON:102:1,2019-05-02T03:30:00Z,29.1870,-90.6093,0.0,26.31,11111222 
LUMCON,ioos:station:LUMCON:102:1,2019-05-02T03:45:00Z,29.1870,-90.6093,0.0,26.19,11111222 
LUMCON,ioos:station:LUMCON:102:1,2019-05-02T04:00:00Z,29.1870,-90.6093,0.0,26.13,11111222 
LUMCON,ioos:station:LUMCON:102:1,2019-05-02T04:15:00Z,29.1870,-90.6093,0.0,26.03,11111222 
LUMCON,ioos:station:LUMCON:102:1,2019-05-02T04:30:00Z,29.1870,-90.6093,0.0,25.97,11111222 
LUMCON,ioos:station:LUMCON:102:1,2019-05-02T04:45:00Z,29.1870,-90.6093,0.0,25.97,11111222 
LUMCON,ioos:station:LUMCON:102:1,2019-05-02T05:00:00Z,29.1870,-90.6093,0.0,25.98,11111222 
LUMCON,ioos:station:LUMCON:102:1,2019-05-02T05:15:00Z,29.1870,-90.6093,0.0,25.99,11111222 
LUMCON,ioos:station:LUMCON:102:1,2019-05-02T05:30:00Z,29.1870,-90.6093,0.0,25.98,11111222 
LUMCON,ioos:station:LUMCON:102:1,2019-05-02T05:45:00Z,29.1870,-90.6093,0.0,25.96,11111222 
LUMCON,ioos:station:LUMCON:102:1,2019-05-02T06:00:00Z,29.1870,-90.6093,0.0,25.96,11111222 
LUMCON,ioos:station:LUMCON:102:1,2019-05-02T06:15:00Z,29.1870,-90.6093,0.0,25.94,11111222 
LUMCON,ioos:station:LUMCON:102:1,2019-05-02T06:30:00Z,29.1870,-90.6093,0.0,25.92,11111222 
LUMCON,ioos:station:LUMCON:102:1,2019-05-02T06:45:00Z,29.1870,-90.6093,0.0,25.89,11111222 
LUMCON,ioos:station:LUMCON:102:1,2019-05-02T07:00:00Z,29.1870,-90.6093,0.0,25.84,11111222 
LUMCON,ioos:station:LUMCON:102:1,2019-05-02T07:15:00Z,29.1870,-90.6093,0.0,25.86,11111222 
LUMCON,ioos:station:LUMCON:102:1,2019-05-02T07:30:00Z,29.1870,-90.6093,0.0,25.82,11111222 
LUMCON,ioos:station:LUMCON:102:1,2019-05-02T07:45:00Z,29.1870,-90.6093,0.0,25.8,11111222 
LUMCON,ioos:station:LUMCON:102:1,2019-05-02T08:00:00Z,29.1870,-90.6093,0.0,25.76,11111222 
LUMCON,ioos:station:LUMCON:102:1,2019-05-02T08:15:00Z,29.1870,-90.6093,0.0,25.74,11111222 
LUMCON,ioos:station:LUMCON:102:1,2019-05-02T08:30:00Z,29.1870,-90.6093,0.0,25.72,11111222 
LUMCON,ioos:station:LUMCON:102:1,2019-05-02T08:45:00Z,29.1870,-90.6093,0.0,25.7,11111222 
LUMCON,ioos:station:LUMCON:102:1,2019-05-02T09:00:00Z,29.1870,-90.6093,0.0,25.7,11111222 
LUMCON,ioos:station:LUMCON:102:1,2019-05-02T09:15:00Z,29.1870,-90.6093,0.0,25.69,11111222 
LUMCON,ioos:station:LUMCON:102:1,2019-05-02T09:30:00Z,29.1870,-90.6093,0.0,25.7,11111222 
LUMCON,ioos:station:LUMCON:102:1,2019-05-02T09:45:00Z,29.1870,-90.6093,0.0,25.68,11111222 
LUMCON,ioos:station:LUMCON:102:1,2019-05-02T10:00:00Z,29.1870,-90.6093,0.0,25.65,11111222 
LUMCON,ioos:station:LUMCON:102:1,2019-05-02T10:15:00Z,29.1870,-90.6093,0.0,25.62,11111222 
LUMCON,ioos:station:LUMCON:102:1,2019-05-02T10:30:00Z,29.1870,-90.6093,0.0,25.59,11111222 
LUMCON,ioos:station:LUMCON:102:1,2019-05-02T10:45:00Z,29.1870,-90.6093,0.0,25.56,11111222 
LUMCON,ioos:station:LUMCON:102:1,2019-05-02T11:00:00Z,29.1870,-90.6093,0.0,25.54,11111222 
LUMCON,ioos:station:LUMCON:102:1,2019-05-02T11:15:00Z,29.1870,-90.6093,0.0,25.55,11111222 
LUMCON,ioos:station:LUMCON:102:1,2019-05-02T11:30:00Z,29.1870,-90.6093,0.0,25.54,11111222 
LUMCON,ioos:station:LUMCON:102:1,2019-05-02T11:45:00Z,29.1870,-90.6093,0.0,25.54,11111222 
LUMCON,ioos:station:LUMCON:102:1,2019-05-02T12:00:00Z,29.1870,-90.6093,0.0,25.51,11111222 
LUMCON,ioos:station:LUMCON:102:1,2019-05-02T12:15:00Z,29.1870,-90.6093,0.0,25.5,11111222 
LUMCON,ioos:station:LUMCON:102:1,2019-05-02T12:30:00Z,29.1870,-90.6093,0.0,25.51,11111222 
LUMCON,ioos:station:LUMCON:102:1,2019-05-02T12:45:00Z,29.1870,-90.6093,0.0,25.5,11111222 
LUMCON,ioos:station:LUMCON:102:1,2019-05-02T13:00:00Z,29.1870,-90.6093,0.0,25.49,11111222 
LUMCON,ioos:station:LUMCON:102:1,2019-05-02T13:15:00Z,29.1870,-90.6093,0.0,25.49,11111222 
LUMCON,ioos:station:LUMCON:102:1,2019-05-02T13:30:00Z,29.1870,-90.6093,0.0,25.49,11111222 
LUMCON,ioos:station:LUMCON:102:1,2019-05-02T13:45:00Z,29.1870,-90.6093,0.0,25.45,11111222 
LUMCON,ioos:station:LUMCON:102:1,2019-05-02T14:00:00Z,29.1870,-90.6093,0.0,25.4,11111222 
LUMCON,ioos:station:LUMCON:102:1,2019-05-02T14:15:00Z,29.1870,-90.6093,0.0,25.44,11111222 
LUMCON,ioos:station:LUMCON:102:1,2019-05-02T14:30:00Z,29.1870,-90.6093,0.0,25.48,11111222 
LUMCON,ioos:station:LUMCON:102:1,2019-05-02T14:45:00Z,29.1870,-90.6093,0.0,25.49,11111222 
LUMCON,ioos:station:LUMCON:102:1,2019-05-02T15:00:00Z,29.1870,-90.6093,0.0,25.47,11111222 
LUMCON,ioos:station:LUMCON:102:1,2019-05-02T15:15:00Z,29.1870,-90.6093,0.0,25.46,11111222 
LUMCON,ioos:station:LUMCON:102:1,2019-05-02T15:30:00Z,29.1870,-90.6093,0.0,25.43,11111222 
LUMCON,ioos:station:LUMCON:102:1,2019-05-02T15:45:00Z,29.1870,-90.6093,0.0,25.43,11111222 
LUMCON,ioos:station:LUMCON:102:1,2019-05-02T16:00:00Z,29.1870,-90.6093,0.0,25.42,11111222 
LUMCON,ioos:station:LUMCON:102:1,2019-05-02T16:15:00Z,29.1870,-90.6093,0.0,25.42,11111222 
LUMCON,ioos:station:LUMCON:102:1,2019-05-02T16:30:00Z,29.1870,-90.6093,0.0,25.41,11111222 
LUMCON,ioos:station:LUMCON:102:1,2019-05-02T16:45:00Z,29.1870,-90.6093,0.0,25.41,11111222 
LUMCON,ioos:station:LUMCON:102:1,2019-05-02T17:00:00Z,29.1870,-90.6093,0.0,25.41,11111222 
LUMCON,ioos:station:LUMCON:102:1,2019-05-02T17:15:00Z,29.1870,-90.6093,0.0,25.42,11111222 
LUMCON,ioos:station:LUMCON:102:1,2019-05-02T17:30:00Z,29.1870,-90.6093,0.0,25.41,11111222 
LUMCON,ioos:station:LUMCON:102:1,2019-05-02T17:45:00Z,29.1870,-90.6093,0.0,25.44,11111222 
LUMCON,ioos:station:LUMCON:102:1,2019-05-02T18:00:00Z,29.1870,-90.6093,0.0,25.6,11111222 
LUMCON,ioos:station:LUMCON:102:1,2019-05-02T18:15:00Z,29.1870,-90.6093,0.0,25.82,11111222 
LUMCON,ioos:station:LUMCON:102:1,2019-05-02T18:30:00Z,29.1870,-90.6093,0.0,25.81,11111222 
LUMCON,ioos:station:LUMCON:102:1,2019-05-02T18:45:00Z,29.1870,-90.6093,0.0,25.73,11111222 
LUMCON,ioos:station:LUMCON:102:1,2019-05-02T19:00:00Z,29.1870,-90.6093,0.0,25.87,11111222 
LUMCON,ioos:station:LUMCON:102:1,2019-05-02T19:15:00Z,29.1870,-90.6093,0.0,25.85,11111222 
LUMCON,ioos:station:LUMCON:102:1,2019-05-02T19:30:00Z,29.1870,-90.6093,0.0,26.1,11111222 
LUMCON,ioos:station:LUMCON:102:1,2019-05-02T19:45:00Z,29.1870,-90.6093,0.0,26.42,11111222 
LUMCON,ioos:station:LUMCON:102:1,2019-05-02T20:00:00Z,29.1870,-90.6093,0.0,26.71,11111222 
LUMCON,ioos:station:LUMCON:102:1,2019-05-02T20:15:00Z,29.1870,-90.6093,0.0,26.91,11111222 
LUMCON,ioos:station:LUMCON:102:1,2019-05-02T20:30:00Z,29.1870,-90.6093,0.0,26.99,11111222 
LUMCON,ioos:station:LUMCON:102:1,2019-05-02T20:45:00Z,29.1870,-90.6093,0.0,26.99,11111222 
LUMCON,ioos:station:LUMCON:102:1,2019-05-02T21:00:00Z,29.1870,-90.6093,0.0,26.98,11111222 
LUMCON,ioos:station:LUMCON:102:1,2019-05-02T21:15:00Z,29.1870,-90.6093,0.0,27.09,11111222 
LUMCON,ioos:station:LUMCON:102:1,2019-05-02T21:30:00Z,29.1870,-90.6093,0.0,27.23,11111222 
LUMCON,ioos:station:LUMCON:102:1,2019-05-02T21:45:00Z,29.1870,-90.6093,0.0,27.25,11111222 
LUMCON,ioos:station:LUMCON:102:1,2019-05-02T22:00:00Z,29.1870,-90.6093,0.0,27.22,11111222 
LUMCON,ioos:station:LUMCON:102:1,2019-05-02T22:15:00Z,29.1870,-90.6093,0.0,27.22,11111222 
LUMCON,ioos:station:LUMCON:102:1,2019-05-02T22:30:00Z,29.1870,-90.6093,0.0,27.2,11111222 
LUMCON,ioos:station:LUMCON:102:1,2019-05-02T22:45:00Z,29.1870,-90.6093,0.0,27.15,11111222 
LUMCON,ioos:station:LUMCON:102:1,2019-05-02T23:00:00Z,29.1870,-90.6093,0.0,27.15,11111222 
LUMCON,ioos:station:LUMCON:102:1,2019-05-02T23:15:00Z,29.1870,-90.6093,0.0,27.11,11111222 
LUMCON,ioos:station:LUMCON:102:1,2019-05-02T23:30:00Z,29.1870,-90.6093,0.0,27.1,11111222 
LUMCON,ioos:station:LUMCON:102:1,2019-05-02T23:45:00Z,29.1870,-90.6093,0.0,26.99,11111222 
LUMCON,ioos:station:LUMCON:102:1,2019-05-03T00:00:00Z,29.1870,-90.6093,0.0,26.97,11111222 
LUMCON,ioos:station:LUMCON:102:1,2019-05-03T00:15:00Z,29.1870,-90.6093,0.0,26.85,11111222 
LUMCON,ioos:station:LUMCON:102:1,2019-05-03T00:30:00Z,29.1870,-90.6093,0.0,26.88,11111222 
LUMCON,ioos:station:LUMCON:102:1,2019-05-03T00:45:00Z,29.1870,-90.6093,0.0,26.86,11111222 
LUMCON,ioos:station:LUMCON:102:1,2019-05-03T01:00:00Z,29.1870,-90.6093,0.0,26.83,11111222 
LUMCON,ioos:station:LUMCON:102:1,2019-05-03T01:15:00Z,29.1870,-90.6093,0.0,26.82,11111222 
LUMCON,ioos:station:LUMCON:102:1,2019-05-03T01:30:00Z,29.1870,-90.6093,0.0,26.78,11111222 
LUMCON,ioos:station:LUMCON:102:1,2019-05-03T01:45:00Z,29.1870,-90.6093,0.0,26.76,11111222 
LUMCON,ioos:station:LUMCON:102:1,2019-05-03T02:00:00Z,29.1870,-90.6093,0.0,26.72,11111222 
LUMCON,ioos:station:LUMCON:102:1,2019-05-03T02:15:00Z,29.1870,-90.6093,0.0,26.68,11111222 
LUMCON,ioos:station:LUMCON:102:1,2019-05-03T02:30:00Z,29.1870,-90.6093,0.0,26.65,11111222 
LUMCON,ioos:station:LUMCON:102:1,2019-05-03T02:45:00Z,29.1870,-90.6093,0.0,26.65,11111222 
LUMCON,ioos:station:LUMCON:102:1,2019-05-03T03:00:00Z,29.1870,-90.6093,0.0,26.65,11111222 
LUMCON,ioos:station:LUMCON:102:1,2019-05-03T03:15:00Z,29.1870,-90.6093,0.0,26.63,11111222 
LUMCON,ioos:station:LUMCON:102:1,2019-05-03T03:30:00Z,29.1870,-90.6093,0.0,26.61,11111222 
LUMCON,ioos:station:LUMCON:102:1,2019-05-03T03:45:00Z,29.1870,-90.6093,0.0,26.6,11111222 
LUMCON,ioos:station:LUMCON:102:1,2019-05-03T04:00:00Z,29.1870,-90.6093,0.0,26.56,11111222 
LUMCON,ioos:station:LUMCON:102:1,2019-05-03T04:15:00Z,29.1870,-90.6093,0.0,26.46,11111222 
LUMCON,ioos:station:LUMCON:102:1,2019-05-03T04:30:00Z,29.1870,-90.6093,0.0,26.4,11111222 
LUMCON,ioos:station:LUMCON:102:1,2019-05-03T04:45:00Z,29.1870,-90.6093,0.0,26.61,11111222 
LUMCON,ioos:station:LUMCON:102:1,2019-05-03T05:00:00Z,29.1870,-90.6093,0.0,26.63,11111222 
LUMCON,ioos:station:LUMCON:102:1,2019-05-03T05:15:00Z,29.1870,-90.6093,0.0,26.57,11111222 
LUMCON,ioos:station:LUMCON:102:1,2019-05-03T05:30:00Z,29.1870,-90.6093,0.0,26.51,11111222 
LUMCON,ioos:station:LUMCON:102:1,2019-05-03T05:45:00Z,29.1870,-90.6093,0.0,26.49,11111222 
LUMCON,ioos:station:LUMCON:102:1,2019-05-03T06:00:00Z,29.1870,-90.6093,0.0,26.4,11111222 
LUMCON,ioos:station:LUMCON:102:1,2019-05-03T06:15:00Z,29.1870,-90.6093,0.0,26.34,11111222 
LUMCON,ioos:station:LUMCON:102:1,2019-05-03T06:30:00Z,29.1870,-90.6093,0.0,26.41,11111222 
LUMCON,ioos:station:LUMCON:102:1,2019-05-03T06:45:00Z,29.1870,-90.6093,0.0,26.41,11111222 
LUMCON,ioos:station:LUMCON:102:1,2019-05-03T07:00:00Z,29.1870,-90.6093,0.0,26.4,11111222 
LUMCON,ioos:station:LUMCON:102:1,2019-05-03T07:15:00Z,29.1870,-90.6093,0.0,26.35,11111222 
LUMCON,ioos:station:LUMCON:102:1,2019-05-03T07:30:00Z,29.1870,-90.6093,0.0,26.33,11111222 
LUMCON,ioos:station:LUMCON:102:1,2019-05-03T07:45:00Z,29.1870,-90.6093,0.0,26.32,11111222 
LUMCON,ioos:station:LUMCON:102:1,2019-05-03T08:00:00Z,29.1870,-90.6093,0.0,26.31,11111222 
LUMCON,ioos:station:LUMCON:102:1,2019-05-03T08:15:00Z,29.1870,-90.6093,0.0,26.32,11111222 
LUMCON,ioos:station:LUMCON:102:1,2019-05-03T08:30:00Z,29.1870,-90.6093,0.0,26.32,11111222 
LUMCON,ioos:station:LUMCON:102:1,2019-05-03T08:45:00Z,29.1870,-90.6093,0.0,26.33,11111222 
LUMCON,ioos:station:LUMCON:102:1,2019-05-03T09:00:00Z,29.1870,-90.6093,0.0,26.34,11111222 
LUMCON,ioos:station:LUMCON:102:1,2019-05-03T09:15:00Z,29.1870,-90.6093,0.0,26.34,11111222 
LUMCON,ioos:station:LUMCON:102:1,2019-05-03T09:30:00Z,29.1870,-90.6093,0.0,26.36,11111222 
LUMCON,ioos:station:LUMCON:102:1,2019-05-03T09:45:00Z,29.1870,-90.6093,0.0,26.36,11111222 
LUMCON,ioos:station:LUMCON:102:1,2019-05-03T10:00:00Z,29.1870,-90.6093,0.0,26.39,11111222 
LUMCON,ioos:station:LUMCON:102:1,2019-05-03T10:15:00Z,29.1870,-90.6093,0.0,26.43,11111222 
LUMCON,ioos:station:LUMCON:102:1,2019-05-03T10:30:00Z,29.1870,-90.6093,0.0,26.43,11111222 
LUMCON,ioos:station:LUMCON:102:1,2019-05-03T10:45:00Z,29.1870,-90.6093,0.0,26.43,11111222 
LUMCON,ioos:station:LUMCON:102:1,2019-05-03T11:00:00Z,29.1870,-90.6093,0.0,26.47,11111222 
LUMCON,ioos:station:LUMCON:102:1,2019-05-03T11:15:00Z,29.1870,-90.6093,0.0,26.5,11111222 
LUMCON,ioos:station:LUMCON:102:1,2019-05-03T11:30:00Z,29.1870,-90.6093,0.0,26.52,11111222 
LUMCON,ioos:station:LUMCON:102:1,2019-05-03T11:45:00Z,29.1870,-90.6093,0.0,26.55,11111222 
LUMCON,ioos:station:LUMCON:102:1,2019-05-03T12:00:00Z,29.1870,-90.6093,0.0,26.57,11111222 
LUMCON,ioos:station:LUMCON:102:1,2019-05-03T12:15:00Z,29.1870,-90.6093,0.0,26.76,11111222 
LUMCON,ioos:station:LUMCON:102:1,2019-05-03T12:30:00Z,29.1870,-90.6093,0.0,26.77,11111222 
LUMCON,ioos:station:LUMCON:102:1,2019-05-03T12:45:00Z,29.1870,-90.6093,0.0,26.74,11111222 
LUMCON,ioos:station:LUMCON:102:1,2019-05-03T13:00:00Z,29.1870,-90.6093,0.0,26.74,11111222 
LUMCON,ioos:station:LUMCON:102:1,2019-05-03T13:15:00Z,29.1870,-90.6093,0.0,26.73,11111222 
LUMCON,ioos:station:LUMCON:102:1,2019-05-03T13:30:00Z,29.1870,-90.6093,0.0,26.73,11111222 
LUMCON,ioos:station:LUMCON:102:1,2019-05-03T13:45:00Z,29.1870,-90.6093,0.0,26.72,11111222 
LUMCON,ioos:station:LUMCON:102:1,2019-05-03T14:00:00Z,29.1870,-90.6093,0.0,26.72,11111222 
LUMCON,ioos:station:LUMCON:102:1,2019-05-03T14:15:00Z,29.1870,-90.6093,0.0,26.71,11111222 
LUMCON,ioos:station:LUMCON:102:1,2019-05-03T14:30:00Z,29.1870,-90.6093,0.0,26.7,11111222 
LUMCON,ioos:station:LUMCON:102:1,2019-05-03T14:45:00Z,29.1870,-90.6093,0.0,26.7,11111222 
LUMCON,ioos:station:LUMCON:102:1,2019-05-03T15:00:00Z,29.1870,-90.6093,0.0,26.7,11111222 
LUMCON,ioos:station:LUMCON:102:1,2019-05-03T15:15:00Z,29.1870,-90.6093,0.0,26.69,11111222 
LUMCON,ioos:station:LUMCON:102:1,2019-05-03T15:30:00Z,29.1870,-90.6093,0.0,26.62,11111222 
LUMCON,ioos:station:LUMCON:102:1,2019-05-03T15:45:00Z,29.1870,-90.6093,0.0,26.46,11111222 
LUMCON,ioos:station:LUMCON:102:1,2019-05-03T16:00:00Z,29.1870,-90.6093,0.0,26.44,11111222 
LUMCON,ioos:station:LUMCON:102:1,2019-05-03T16:15:00Z,29.1870,-90.6093,0.0,26.5,11111222 
LUMCON,ioos:station:LUMCON:102:1,2019-05-03T16:30:00Z,29.1870,-90.6093,0.0,26.49,11111222 
LUMCON,ioos:station:LUMCON:102:1,2019-05-03T16:45:00Z,29.1870,-90.6093,0.0,26.53,11111222 
LUMCON,ioos:station:LUMCON:102:1,2019-05-03T17:00:00Z,29.1870,-90.6093,0.0,26.58,11111222 
LUMCON,ioos:station:LUMCON:102:1,2019-05-03T17:15:00Z,29.1870,-90.6093,0.0,26.64,11111222 
LUMCON,ioos:station:LUMCON:102:1,2019-05-03T17:30:00Z,29.1870,-90.6093,0.0,26.66,11111222 